Tracking 30074 objects as of 13-Jan-2025
HD Live streaming from Space Station
objects crossing your sky now

FENGYUN 2E DEB

Track FENGYUN 2E DEB now!


NORAD ID: 40987
Int'l Code: 2008-066D
Perigee: 35,048.0 km
Apogee: 36,557.6 km
Inclination: 9.1 °
Period: 1,436.6 minutes
Semi major axis: 42173 km
RCS: Unknown
Launch date: December 23, 2008
Source: People's Republic of China (PRC)
Launch site: Xichang Space Center, China (XSC)

Note: This is SATELLITE DEBRIS
Your satellite tracking list
Your tracking list is empty




NASA's NSSDC Master Catalog

Two Line Element Set (TLE):
1 40987U 08066D   25010.49258033 -.00000421  00000-0  00000+0 0  9997
2 40987   9.1032  48.8848 0178980 355.7257   4.1164  1.00239500 57190
Source of the keplerian elements: AFSPC